| time (UTC) | temp F | wind direction | speed MPH | gust MPH | rain 1hr in | rain 24hr in | rain mn in | humidity % | barometer mb |
| 20260508213145 | 74 | 344 | 12.0 | 21.0 | 0.00 | 0.00 | 0.00 | 22 | 1015.7 |
| 20260508212145 | 74 | 315 | 12.0 | 26.0 | 0.00 | 0.00 | 0.00 | 22 | 1015.7 |
| 20260508211642 | 74 | 9 | 10.0 | 26.0 | 0.00 | 0.00 | 0.00 | 22 | 1015.9 |
| 20260508211142 | 73 | 290 | 10.0 | 18.0 | 0.00 | 0.00 | 0.00 | 22 | 1015.7 |
| 20260508210640 | 74 | 315 | 9.0 | 18.0 | 0.00 | 0.00 | 0.00 | 22 | 1016.0 |
| 20260508210140 | 74 | 22 | 10.0 | 19.0 | 0.00 | 0.00 | 0.00 | 22 | 1016.2 |
| 20260508205640 | 73 | 335 | 11.0 | 19.0 | 0.00 | 0.00 | 0.00 | 22 | 1016.0 |
| 20260508205410 | 74 | 11 | 11.0 | 19.0 | 0.00 | 0.00 | 0.00 | 22 | 1016.2 |
| 20260508204639 | 73 | 15 | 11.0 | 19.0 | 0.00 | 0.00 | 0.00 | 22 | 1016.2 |
| 20260508204140 | 73 | 0 | 11.0 | 19.0 | 0.00 | 0.00 | 0.00 | 22 | 1016.1 |
| 20260508203910 | 73 | 325 | 10.0 | 20.0 | 0.00 | 0.00 | 0.00 | 22 | 1016.2 |
| 20260508203130 | 73 | 32 | 10.0 | 20.0 | 0.00 | 0.00 | 0.00 | 23 | 1016.1 |
| 20260508202622 | 73 | 279 | 11.0 | 25.0 | 0.00 | 0.00 | 0.00 | 23 | 1016.2 |
| 20260508202117 | 73 | 10 | 12.0 | 25.0 | 0.00 | 0.00 | 0.00 | 22 | 1016.1 |
| 20260508201607 | 73 | 12 | 13.0 | 23.0 | 0.00 | 0.00 | 0.00 | 23 | 1016.2 |
| 20260508201104 | 73 | 36 | 13.0 | 23.0 | 0.00 | 0.00 | 0.00 | 23 | 1016.1 |
| 20260508200550 | 73 | 0 | 12.0 | 20.0 | 0.00 | 0.00 | 0.00 | 23 | 1016.3 |
| 20260508200047 | 73 | 46 | 10.0 | 21.0 | 0.00 | 0.00 | 0.00 | 22 | 1016.4 |
| 20260508195540 | 73 | 290 | 10.0 | 21.0 | 0.00 | 0.00 | 0.00 | 23 | 1016.6 |
| 20260508195032 | 73 | 314 | 11.0 | 23.0 | 0.00 | 0.00 | 0.00 | 23 | 1016.6 |
| 20260508194520 | 73 | 38 | 11.0 | 23.0 | 0.00 | 0.00 | 0.00 | 22 | 1016.6 |
| 20260508194018 | 73 | 333 | 12.0 | 23.0 | 0.00 | 0.00 | 0.00 | 21 | 1016.6 |
| 20260508193508 | 73 | 336 | 12.0 | 22.0 | 0.00 | 0.00 | 0.00 | 20 | 1016.6 |
| 20260508193008 | 73 | 272 | 10.0 | 19.0 | 0.00 | 0.00 | 0.00 | 21 | 1016.6 |
| 20260508192506 | 73 | 306 | 8.0 | 19.0 | 0.00 | 0.00 | 0.00 | 22 | 1016.7 |
| 20260508192004 | 73 | 340 | 6.0 | 15.0 | 0.00 | 0.00 | 0.00 | 23 | 1016.9 |
| 20260508191738 | 73 | 328 | 6.0 | 12.0 | 0.00 | 0.00 | 0.00 | 25 | 1016.9 |
| 20260508191004 | 72 | 350 | 7.0 | 15.0 | 0.00 | 0.00 | 0.00 | 26 | 1016.8 |
| 20260508190503 | 71 | 307 | 9.0 | 16.0 | 0.00 | 0.00 | 0.00 | 26 | 1016.7 |
| 20260508190235 | 71 | 325 | 8.0 | 16.0 | 0.00 | 0.00 | 0.00 | 26 | 1016.7 |
| 20260508185502 | 71 | 27 | 7.0 | 14.0 | 0.00 | 0.00 | 0.00 | 27 | 1016.8 |
| 20260508185001 | 70 | 219 | 6.0 | 12.0 | 0.00 | 0.00 | 0.00 | 28 | 1016.8 |
| 20260508184503 | 70 | 5 | 6.0 | 13.0 | 0.00 | 0.00 | 0.00 | 28 | 1016.9 |
| 20260508184001 | 70 | 355 | 7.0 | 17.0 | 0.00 | 0.00 | 0.00 | 29 | 1016.7 |
| 20260508183459 | 70 | 5 | 7.0 | 17.0 | 0.00 | 0.00 | 0.00 | 29 | 1016.8 |
| 20260508182959 | 71 | 5 | 8.0 | 16.0 | 0.00 | 0.00 | 0.00 | 30 | 1016.9 |
| 20260508182731 | 70 | 5 | 10.0 | 17.0 | 0.00 | 0.00 | 0.00 | 30 | 1016.7 |
| 20260508182001 | 70 | 38 | 9.0 | 17.0 | 0.00 | 0.00 | 0.00 | 30 | 1016.8 |
| 20260508181456 | 70 | 69 | 8.0 | 19.0 | 0.00 | 0.00 | 0.00 | 31 | 1017.0 |
| 20260508180951 | 70 | 5 | 8.0 | 19.0 | 0.00 | 0.00 | 0.00 | 31 | 1017.0 |
| 20260508180439 | 71 | 327 | 7.0 | 16.0 | 0.00 | 0.00 | 0.00 | 30 | 1017.1 |
| 20260508175932 | 71 | 24 | 7.0 | 16.0 | 0.00 | 0.00 | 0.00 | 30 | 1017.2 |
| 20260508175426 | 70 | 338 | 7.0 | 14.0 | 0.00 | 0.00 | 0.00 | 29 | 1017.0 |
| 20260508174921 | 70 | 33 | 8.0 | 16.0 | 0.00 | 0.00 | 0.00 | 30 | 1017.0 |
| 20260508174410 | 70 | 12 | 7.0 | 16.0 | 0.00 | 0.00 | 0.00 | 30 | 1016.9 |
| 20260508173908 | 69 | 46 | 5.0 | 12.0 | 0.00 | 0.00 | 0.00 | 34 | 1016.9 |
| 20260508173404 | 70 | 89 | 6.0 | 12.0 | 0.00 | 0.00 | 0.00 | 35 | 1017.0 |
| 20260508172857 | 69 | 114 | 6.0 | 12.0 | 0.00 | 0.00 | 0.00 | 35 | 1016.8 |
| 20260508172356 | 69 | 112 | 5.0 | 8.0 | 0.00 | 0.00 | 0.00 | 36 | 1016.8 |
| 20260508171855 | 68 | 126 | 4.0 | 8.0 | 0.00 | 0.00 | 0.00 | 36 | 1016.8 |
| 20260508171356 | 68 | 130 | 4.0 | 8.0 | 0.00 | 0.00 | 0.00 | 38 | 1016.8 |
| 20260508170854 | 68 | 78 | 4.0 | 8.0 | 0.00 | 0.00 | 0.00 | 38 | 1016.8 |
| 20260508170352 | 68 | 49 | 3.0 | 8.0 | 0.00 | 0.00 | 0.00 | 38 | 1016.8 |
| 20260508165851 | 68 | 117 | 3.0 | 8.0 | 0.00 | 0.00 | 0.00 | 37 | 1016.7 |
| 20260508165351 | 67 | 67 | 3.0 | 6.0 | 0.00 | 0.00 | 0.00 | 40 | 1016.3 |
| 20260508164850 | 66 | 61 | 3.0 | 7.0 | 0.00 | 0.00 | 0.00 | 40 | 1016.1 |
| 20260508164621 | 66 | 89 | 4.0 | 8.0 | 0.00 | 0.00 | 0.00 | 40 | 1016.0 |
| 20260508163849 | 65 | 86 | 4.0 | 8.0 | 0.00 | 0.00 | 0.00 | 44 | 1015.9 |
| 20260508163352 | 65 | 122 | 4.0 | 7.0 | 0.00 | 0.00 | 0.00 | 45 | 1015.9 |
| 20260508162850 | 64 | 117 | 4.0 | 7.0 | 0.00 | 0.00 | 0.00 | 44 | 1015.6 |
| 20260508162344 | 64 | 89 | 4.0 | 7.0 | 0.00 | 0.00 | 0.00 | 44 | 1015.7 |
| 20260508162115 | 64 | 117 | 4.0 | 7.0 | 0.00 | 0.00 | 0.00 | 47 | 1015.5 |
| 20260508161339 | 64 | 119 | 4.0 | 7.0 | 0.00 | 0.00 | 0.00 | 46 | 1015.5 |
| 20260508160838 | 64 | 88 | 3.0 | 7.0 | 0.00 | 0.00 | 0.00 | 48 | 1015.5 |
| 20260508155836 | 64 | 69 | 2.0 | 7.0 | 0.00 | 0.00 | 0.00 | 48 | 1015.4 |
| 20260508155336 | 64 | 104 | 2.0 | 7.0 | 0.00 | 0.00 | 0.00 | 48 | 1015.3 |
| 20260508154835 | 63 | 96 | 3.0 | 6.0 | 0.00 | 0.00 | 0.00 | 47 | 1015.3 |
| 20260508154334 | 63 | 86 | 3.0 | 6.0 | 0.00 | 0.00 | 0.00 | 49 | 1015.2 |
| 20260508153837 | 63 | 97 | 2.0 | 6.0 | 0.00 | 0.00 | 0.00 | 49 | 1015.3 |
| 20260508153331 | 62 | 49 | 2.0 | 6.0 | 0.00 | 0.00 | 0.00 | 49 | 1014.9 |
| 20260508152819 | 62 | 89 | 2.0 | 6.0 | 0.00 | 0.00 | 0.00 | 50 | 1014.9 |
| 20260508152537 | 61 | 112 | 2.0 | 6.0 | 0.00 | 0.00 | 0.00 | 47 | 1014.7 |
| 20260508151802 | 60 | 105 | 2.0 | 5.0 | 0.00 | 0.00 | 0.00 | 51 | 1014.5 |
| 20260508151255 | 60 | 109 | 2.0 | 6.0 | 0.00 | 0.00 | 0.00 | 50 | 1014.5 |
| 20260508150751 | 60 | 101 | 2.0 | 6.0 | 0.00 | 0.00 | 0.00 | 52 | 1014.4 |
| 20260508150252 | 60 | 109 | 2.0 | 5.0 | 0.00 | 0.00 | 0.00 | 53 | 1014.4 |
| 20260508145750 | 60 | 80 | 2.0 | 5.0 | 0.00 | 0.00 | 0.00 | 54 | 1014.4 |
| 20260508145248 | 60 | 85 | 2.0 | 5.0 | 0.00 | 0.00 | 0.00 | 55 | 1014.4 |
| 20260508144749 | 60 | 86 | 2.0 | 5.0 | 0.00 | 0.00 | 0.00 | 55 | 1014.3 |
| 20260508144242 | 60 | 90 | 2.0 | 5.0 | 0.00 | 0.00 | 0.00 | 55 | 1014.1 |
| 20260508143737 | 59 | 82 | 2.0 | 5.0 | 0.00 | 0.00 | 0.00 | 55 | 1014.1 |
| 20260508143230 | 59 | 122 | 2.0 | 5.0 | 0.00 | 0.00 | 0.00 | 55 | 1014.0 |
| 20260508142730 | 59 | 104 | 1.0 | 4.0 | 0.00 | 0.00 | 0.00 | 55 | 1014.0 |
| 20260508142223 | 59 | 90 | 0.0 | 0.0 | 0.00 | 0.00 | 0.00 | 55 | 1014.0 |
| 20260508141715 | 59 | 86 | 0.0 | 1.0 | 0.00 | 0.00 | 0.00 | 56 | 1013.9 |
| 20260508141203 | 59 | 107 | 1.0 | 4.0 | 0.00 | 0.00 | 0.00 | 55 | 1013.7 |
| 20260508140641 | 59 | 107 | 1.0 | 4.0 | 0.00 | 0.00 | 0.00 | 55 | 1013.8 |
| 20260508140136 | 59 | 112 | 0.0 | 2.0 | 0.00 | 0.00 | 0.00 | 56 | 1013.7 |
| 20260508135626 | 58 | 247 | 0.0 | 0.0 | 0.00 | 0.00 | 0.00 | 57 | 1013.6 |
| 20260508135112 | 57 | 247 | 0.0 | 0.0 | 0.00 | 0.00 | 0.00 | 59 | 1013.3 |
| 20260508134605 | 57 | 247 | 0.0 | 0.0 | 0.00 | 0.00 | 0.00 | 59 | 1013.1 |
| 20260508134335 | 57 | 247 | 0.0 | 0.0 | 0.00 | 0.00 | 0.00 | 60 | 1013.1 |
| 20260508133606 | 56 | 250 | 0.0 | 0.0 | 0.00 | 0.00 | 0.00 | 60 | 1012.8 |
| 20260508133108 | 55 | 250 | 0.0 | 1.0 | 0.00 | 0.00 | 0.00 | 59 | 1012.7 |
| 20260508132604 | 55 | 250 | 1.0 | 2.0 | 0.00 | 0.00 | 0.00 | 58 | 1012.5 |
| 20260508132321 | 55 | 250 | 1.0 | 2.0 | 0.00 | 0.00 | 0.00 | 56 | 1012.3 |
| 20260508131547 | 54 | 260 | 1.0 | 2.0 | 0.00 | 0.00 | 0.00 | 52 | 1012.2 |
| 20260508131046 | 54 | 262 | 1.0 | 2.0 | 0.00 | 0.00 | 0.00 | 50 | 1012.2 |
| 20260508130809 | 54 | 262 | 1.0 | 3.0 | 0.00 | 0.00 | 0.00 | 49 | 1012.1 |
| 20260508130040 | 54 | 263 | 2.0 | 3.0 | 0.00 | 0.00 | 0.00 | 53 | 1012.1 |
| 20260508125810 | 54 | 260 | 2.0 | 3.0 | 0.00 | 0.00 | 0.00 | 48 | 1011.9 |
| 20260508125032 | 53 | 256 | 2.0 | 3.0 | 0.00 | 0.00 | 0.00 | 47 | 1011.6 |
| 20260508124519 | 53 | 247 | 1.0 | 3.0 | 0.00 | 0.00 | 0.00 | 48 | 1011.6 |
| 20260508124008 | 53 | 251 | 2.0 | 3.0 | 0.00 | 0.00 | 0.00 | 48 | 1011.5 |
| 20260508123503 | 53 | 259 | 2.0 | 4.0 | 0.00 | 0.00 | 0.00 | 48 | 1011.4 |
| 20260508123006 | 53 | 265 | 2.0 | 4.0 | 0.00 | 0.00 | 0.00 | 48 | 1011.2 |
| 20260508122504 | 52 | 242 | 2.0 | 4.0 | 0.00 | 0.00 | 0.00 | 48 | 1011.2 |
| 20260508122005 | 53 | 236 | 2.0 | 5.0 | 0.00 | 0.00 | 0.00 | 48 | 1011.2 |
| 20260508121502 | 53 | 173 | 3.0 | 6.0 | 0.00 | 0.00 | 0.00 | 48 | 1011.2 |
| 20260508121232 | 52 | 250 | 3.0 | 6.0 | 0.00 | 0.00 | 0.00 | 48 | 1011.1 |
| 20260508120501 | 52 | 261 | 4.0 | 7.0 | 0.00 | 0.00 | 0.00 | 47 | 1011.2 |
| 20260508120003 | 53 | 174 | 4.0 | 7.0 | 0.00 | 0.00 | 0.00 | 47 | 1011.1 |
| 20260508115504 | 52 | 257 | 4.0 | 6.0 | 0.00 | 0.00 | 0.00 | 47 | 1010.9 |
| 20260508115002 | 52 | 281 | 4.0 | 8.0 | 0.00 | 0.00 | 0.00 | 48 | 1010.8 |
| 20260508114447 | 53 | 255 | 5.0 | 9.0 | 0.00 | 0.00 | 0.00 | 47 | 1010.8 |
| 20260508113948 | 53 | 272 | 5.0 | 9.0 | 0.00 | 0.00 | 0.00 | 47 | 1010.8 |
| 20260508113440 | 53 | 257 | 3.0 | 7.0 | 0.00 | 0.00 | 0.00 | 47 | 1010.8 |
| 20260508112935 | 53 | 261 | 2.0 | 6.0 | 0.00 | 0.00 | 0.00 | 48 | 1011.1 |
| 20260508112429 | 53 | 230 | 3.0 | 6.0 | 0.00 | 0.00 | 0.00 | 46 | 1011.2 |
| 20260508111917 | 54 | 217 | 3.0 | 6.0 | 0.00 | 0.00 | 0.00 | 46 | 1011.2 |
| 20260508110912 | 54 | 212 | 3.0 | 6.0 | 0.00 | 0.00 | 0.00 | 46 | 1011.2 |
| 20260508110404 | 54 | 246 | 3.0 | 6.0 | 0.00 | 0.00 | 0.00 | 46 | 1011.3 |
| 20260508105858 | 54 | 267 | 3.0 | 6.0 | 0.00 | 0.00 | 0.00 | 47 | 1011.3 |
| 20260508105347 | 54 | 252 | 4.0 | 6.0 | 0.00 | 0.00 | 0.00 | 46 | 1011.4 |
| 20260508105118 | 55 | 267 | 4.0 | 6.0 | 0.00 | 0.00 | 0.00 | 46 | 1011.4 |
| 20260508104340 | 55 | 270 | 3.0 | 6.0 | 0.00 | 0.00 | 0.00 | 45 | 1011.6 |
| 20260508103834 | 56 | 231 | 3.0 | 5.0 | 0.00 | 0.00 | 0.00 | 45 | 1011.9 |
| 20260508103327 | 57 | 242 | 3.0 | 5.0 | 0.00 | 0.00 | 0.00 | 44 | 1012.0 |
| 20260508102821 | 57 | 190 | 3.0 | 4.0 | 0.00 | 0.00 | 0.00 | 43 | 1012.0 |
| 20260508102316 | 56 | 218 | 3.0 | 4.0 | 0.00 | 0.00 | 0.00 | 43 | 1011.7 |
| 20260508101813 | 56 | 219 | 2.0 | 4.0 | 0.00 | 0.00 | 0.00 | 43 | 1011.7 |
| 20260508101304 | 56 | 201 | 1.0 | 4.0 | 0.00 | 0.00 | 0.00 | 43 | 1011.9 |
| 20260508101028 | 57 | 159 | 1.0 | 4.0 | 0.00 | 0.00 | 0.00 | 43 | 1011.9 |
| 20260508100252 | 57 | 159 | 1.0 | 4.0 | 0.00 | 0.00 | 0.00 | 43 | 1011.9 |
| 20260508095748 | 56 | 193 | 3.0 | 7.0 | 0.00 | 0.00 | 0.00 | 44 | 1011.6 |
| 20260508095240 | 56 | 205 | 4.0 | 7.0 | 0.00 | 0.00 | 0.00 | 44 | 1011.6 |
| 20260508095004 | 56 | 219 | 4.0 | 7.0 | 0.00 | 0.00 | 0.00 | 44 | 1011.6 |
| 20260508094228 | 56 | 227 | 3.0 | 5.0 | 0.00 | 0.00 | 0.00 | 45 | 1011.5 |
| 20260508093722 | 56 | 217 | 2.0 | 5.0 | 0.00 | 0.00 | 0.00 | 44 | 1011.5 |
| 20260508093220 | 56 | 261 | 2.0 | 6.0 | 0.00 | 0.00 | 0.00 | 44 | 1011.7 |
| 20260508092710 | 56 | 344 | 2.0 | 6.0 | 0.00 | 0.00 | 0.00 | 43 | 1011.6 |
| 20260508092203 | 56 | 291 | 2.0 | 5.0 | 0.00 | 0.00 | 0.00 | 44 | 1011.7 |
| 20260508091702 | 56 | 217 | 1.0 | 4.0 | 0.00 | 0.00 | 0.00 | 44 | 1011.6 |
| 20260508091204 | 57 | 202 | 1.0 | 4.0 | 0.00 | 0.00 | 0.00 | 43 | 1011.9 |
| 20260508090706 | 57 | 186 | 2.0 | 5.0 | 0.00 | 0.00 | 0.00 | 43 | 1011.9 |
| 20260508090139 | 58 | 212 | 2.0 | 5.0 | 0.00 | 0.00 | 0.00 | 42 | 1012.2 |
| 20260508085634 | 58 | 254 | 2.0 | 5.0 | 0.00 | 0.00 | 0.00 | 40 | 1012.2 |
| 20260508085354 | 58 | 286 | 3.0 | 6.0 | 0.00 | 0.00 | 0.00 | 40 | 1012.2 |
| 20260508084620 | 58 | 279 | 4.0 | 8.0 | 0.00 | 0.00 | 0.00 | 41 | 1012.1 |
| 20260508084107 | 58 | 271 | 4.0 | 8.0 | 0.00 | 0.00 | 0.00 | 42 | 1012.1 |
| 20260508083607 | 58 | 275 | 4.0 | 8.0 | 0.00 | 0.00 | 0.00 | 42 | 1012.1 |
| 20260508083323 | 58 | 252 | 4.0 | 6.0 | 0.00 | 0.00 | 0.00 | 42 | 1012.1 |
| 20260508082549 | 58 | 261 | 4.0 | 6.0 | 0.00 | 0.00 | 0.00 | 42 | 1012.2 |
| 20260508082041 | 57 | 225 | 3.0 | 5.0 | 0.00 | 0.00 | 0.00 | 42 | 1012.0 |
| 20260508081535 | 57 | 254 | 3.0 | 5.0 | 0.00 | 0.00 | 0.00 | 43 | 1012.0 |
| 20260508081024 | 58 | 244 | 3.0 | 5.0 | 0.00 | 0.00 | 0.00 | 42 | 1012.1 |
| 20260508080520 | 58 | 256 | 2.0 | 4.0 | 0.00 | 0.00 | 0.00 | 41 | 1012.2 |
| 20260508080014 | 58 | 254 | 3.0 | 4.0 | 0.00 | 0.00 | 0.00 | 41 | 1012.4 |
| 20260508075504 | 58 | 252 | 3.0 | 5.0 | 0.00 | 0.00 | 0.00 | 41 | 1012.3 |
| 20260508075002 | 58 | 259 | 4.0 | 6.0 | 0.00 | 0.00 | 0.00 | 42 | 1012.3 |
| 20260508074727 | 58 | 259 | 3.0 | 6.0 | 0.00 | 0.00 | 0.00 | 42 | 1012.3 |
| 20260508073951 | 58 | 277 | 3.0 | 5.0 | 0.00 | 0.00 | 0.00 | 42 | 1012.3 |
| 20260508073444 | 58 | 254 | 3.0 | 5.0 | 0.00 | 0.00 | 0.00 | 41 | 1012.4 |
| 20260508073209 | 59 | 258 | 2.0 | 5.0 | 0.00 | 0.00 | 0.00 | 40 | 1012.8 |
| 20260508072433 | 60 | 228 | 1.0 | 4.0 | 0.00 | 0.00 | 0.00 | 38 | 1013.0 |
| 20260508071929 | 60 | 221 | 0.0 | 0.0 | 0.00 | 0.00 | 0.00 | 37 | 1013.1 |
| 20260508071659 | 60 | 105 | 0.0 | 0.0 | 0.00 | 0.00 | 0.00 | 38 | 1013.2 |
| 20260508070914 | 60 | 105 | 0.0 | 1.0 | 0.00 | 0.00 | 0.00 | 37 | 1013.0 |
| 20260508070409 | 60 | 105 | 0.0 | 2.0 | 0.00 | 0.00 | 0.00 | 38 | 1013.1 |
| 20260508065902 | 61 | 105 | 2.0 | 5.0 | 0.00 | 0.00 | 0.00 | 38 | 1013.1 |
| 20260508065352 | 60 | 26 | 2.0 | 5.0 | 0.00 | 0.00 | 0.00 | 38 | 1013.0 |
| 20260508064853 | 59 | 339 | 2.0 | 4.0 | 0.00 | 0.00 | 0.00 | 40 | 1012.8 |
| 20260508064625 | 59 | 355 | 3.0 | 5.0 | 0.00 | 0.00 | 0.00 | 41 | 1012.4 |
| 20260508063833 | 57 | 313 | 3.0 | 5.0 | 0.00 | 0.00 | 0.00 | 43 | 1012.1 |
| 20260508063606 | 57 | 275 | 2.0 | 5.0 | 0.00 | 0.00 | 0.00 | 45 | 1012.1 |
| 20260508062832 | 57 | 242 | 2.0 | 4.0 | 0.00 | 0.00 | 0.00 | 44 | 1012.1 |
| 20260508062332 | 58 | 193 | 1.0 | 4.0 | 0.00 | 0.00 | 0.00 | 43 | 1012.2 |
| 20260508062102 | 58 | 257 | 1.0 | 3.0 | 0.00 | 0.00 | 0.00 | 42 | 1012.2 |
| 20260508061336 | 58 | 223 | 2.0 | 3.0 | 0.00 | 0.00 | 0.00 | 43 | 1012.1 |
| 20260508060824 | 58 | 229 | 2.0 | 6.0 | 0.00 | 0.00 | 0.00 | 43 | 1012.0 |
| 20260508055817 | 58 | 261 | 3.0 | 5.0 | 0.00 | 0.00 | 0.00 | 42 | 1012.0 |
| 20260508055316 | 58 | 237 | 3.0 | 4.0 | 0.00 | 0.00 | 0.00 | 42 | 1011.9 |
| 20260508055046 | 58 | 232 | 3.0 | 5.0 | 0.00 | 0.00 | 0.00 | 42 | 1011.9 |
| 20260508054316 | 58 | 217 | 4.0 | 7.0 | 0.00 | 0.00 | 0.00 | 42 | 1012.2 |
| 20260508054047 | 60 | 202 | 4.0 | 7.0 | 0.00 | 0.00 | 0.00 | 40 | 1012.5 |
| 20260508053319 | 61 | 201 | 2.0 | 5.0 | 0.00 | 0.00 | 0.00 | 38 | 1013.0 |
| 20260508052813 | 62 | 201 | 3.0 | 6.0 | 0.00 | 0.00 | 0.00 | 37 | 1013.1 |
| 20260508052310 | 61 | 346 | 4.0 | 6.0 | 0.00 | 0.00 | 0.00 | 37 | 1012.8 |
| 20260508051810 | 61 | 266 | 5.0 | 7.0 | 0.00 | 0.00 | 0.00 | 38 | 1012.8 |
| 20260508051306 | 61 | 255 | 4.0 | 7.0 | 0.00 | 0.00 | 0.00 | 38 | 1012.9 |
| 20260508051023 | 62 | 268 | 4.0 | 6.0 | 0.00 | 0.00 | 0.00 | 37 | 1013.1 |
| 20260508050252 | 62 | 259 | 3.0 | 5.0 | 0.00 | 0.00 | 0.00 | 36 | 1013.0 |
| 20260508045751 | 62 | 261 | 2.0 | 4.0 | 0.00 | 0.00 | 0.00 | 36 | 1013.2 |
| 20260508045255 | 64 | 232 | 2.0 | 4.0 | 0.00 | 0.00 | 0.00 | 34 | 1013.6 |
| 20260508044750 | 65 | 306 | 3.0 | 5.0 | 0.00 | 0.00 | 0.00 | 33 | 1013.8 |
| 20260508044252 | 64 | 306 | 4.0 | 5.0 | 0.00 | 0.00 | 0.00 | 32 | 1013.7 |
| 20260508043744 | 63 | 303 | 5.0 | 6.0 | 0.00 | 0.00 | 0.00 | 34 | 1013.5 |
| 20260508043245 | 62 | 298 | 4.0 | 6.0 | 0.00 | 0.00 | 0.00 | 35 | 1013.3 |
| 20260508042744 | 62 | 268 | 3.0 | 4.0 | 0.00 | 0.00 | 0.00 | 37 | 1013.2 |
| 20260508042245 | 63 | 250 | 3.0 | 5.0 | 0.00 | 0.00 | 0.00 | 35 | 1013.6 |
| 20260508041741 | 64 | 254 | 2.0 | 5.0 | 0.00 | 0.00 | 0.00 | 34 | 1013.9 |
| 20260508041242 | 65 | 279 | 2.0 | 4.0 | 0.00 | 0.00 | 0.00 | 33 | 1014.0 |
| 20260508040743 | 64 | 280 | 3.0 | 4.0 | 0.00 | 0.00 | 0.00 | 33 | 1013.9 |
| 20260508040502 | 64 | 277 | 3.0 | 4.0 | 0.00 | 0.00 | 0.00 | 34 | 1013.9 |
| 20260508035735 | 65 | 274 | 3.0 | 6.0 | 0.00 | 0.00 | 0.00 | 33 | 1014.0 |
| 20260508035444 | 66 | 256 | 3.0 | 6.0 | 0.00 | 0.00 | 0.00 | 32 | 1014.5 |
| 20260508034712 | 67 | 258 | 3.0 | 5.0 | 0.00 | 0.00 | 0.00 | 30 | 1014.7 |
| 20260508034211 | 67 | 306 | 3.0 | 5.0 | 0.00 | 0.00 | 0.00 | 29 | 1014.5 |
| 20260508033711 | 67 | 305 | 2.0 | 5.0 | 0.00 | 0.00 | 0.00 | 30 | 1014.5 |
| 20260508033208 | 67 | 317 | 1.0 | 4.0 | 0.00 | 0.00 | 0.00 | 30 | 1014.5 |
| 20260508032701 | 67 | 317 | 2.0 | 4.0 | 0.00 | 0.00 | 0.00 | 30 | 1014.7 |
| 20260508032204 | 67 | 333 | 2.0 | 4.0 | 0.00 | 0.00 | 0.00 | 29 | 1014.7 |
| 20260508031703 | 67 | 327 | 3.0 | 5.0 | 0.00 | 0.00 | 0.00 | 29 | 1014.6 |
| 20260508031206 | 67 | 313 | 4.0 | 6.0 | 0.00 | 0.00 | 0.00 | 29 | 1014.5 |
| 20260508030702 | 67 | 306 | 4.0 | 6.0 | 0.00 | 0.00 | 0.00 | 29 | 1014.5 |
| 20260508030155 | 68 | 319 | 3.0 | 6.0 | 0.00 | 0.00 | 0.00 | 29 | 1014.6 |
| 20260508025656 | 68 | 327 | 2.0 | 5.0 | 0.00 | 0.00 | 0.00 | 29 | 1014.7 |
| 20260508025154 | 68 | 0 | 2.0 | 6.0 | 0.00 | 0.00 | 0.00 | 29 | 1014.6 |
| 20260508024925 | 68 | 346 | 3.0 | 6.0 | 0.00 | 0.00 | 0.00 | 28 | 1014.6 |
| 20260508024149 | 69 | 339 | 3.0 | 5.0 | 0.00 | 0.00 | 0.00 | 28 | 1014.7 |
| 20260508023646 | 69 | 333 | 3.0 | 5.0 | 0.00 | 0.00 | 0.00 | 28 | 1014.6 |
| 20260508023145 | 69 | 328 | 3.0 | 5.0 | 0.00 | 0.00 | 0.00 | 28 | 1014.7 |
| 20260508022911 | 69 | 334 | 2.0 | 5.0 | 0.00 | 0.00 | 0.00 | 28 | 1014.7 |
| 20260508022132 | 70 | 342 | 1.0 | 4.0 | 0.00 | 0.00 | 0.00 | 28 | 1014.8 |
| 20260508021614 | 70 | 16 | 2.0 | 5.0 | 0.00 | 0.00 | 0.00 | 27 | 1014.9 |
| 20260508021115 | 71 | 5 | 3.0 | 5.0 | 0.00 | 0.00 | 0.00 | 27 | 1015.2 |
| 20260508020615 | 71 | 317 | 2.0 | 5.0 | 0.00 | 0.00 | 0.00 | 27 | 1015.4 |
| 20260508020113 | 72 | 33 | 2.0 | 3.0 | 0.00 | 0.00 | 0.00 | 26 | 1015.4 |
| 20260508015602 | 72 | 33 | 2.0 | 3.0 | 0.00 | 0.00 | 0.00 | 26 | 1015.4 |
| 20260508015101 | 72 | 33 | 2.0 | 3.0 | 0.00 | 0.00 | 0.00 | 25 | 1015.4 |
| 20260508014545 | 72 | 33 | 2.0 | 4.0 | 0.00 | 0.00 | 0.00 | 25 | 1015.6 |
| 20260508014047 | 72 | 21 | 2.0 | 4.0 | 0.00 | 0.00 | 0.00 | 25 | 1015.5 |
| 20260508013540 | 73 | 23 | 2.0 | 4.0 | 0.00 | 0.00 | 0.00 | 25 | 1015.6 |
| 20260508013040 | 73 | 0 | 2.0 | 4.0 | 0.00 | 0.00 | 0.00 | 25 | 1015.6 |
| 20260508012540 | 73 | 355 | 2.0 | 4.0 | 0.00 | 0.00 | 0.00 | 25 | 1015.5 |
| 20260508012044 | 73 | 30 | 2.0 | 4.0 | 0.00 | 0.00 | 0.00 | 25 | 1015.5 |
| 20260508011534 | 73 | 340 | 2.0 | 4.0 | 0.00 | 0.00 | 0.00 | 25 | 1015.5 |
| 20260508011023 | 72 | 301 | 1.0 | 3.0 | 0.00 | 0.00 | 0.00 | 25 | 1015.6 |
| 20260508010512 | 72 | 22 | 1.0 | 3.0 | 0.00 | 0.00 | 0.00 | 25 | 1015.6 |
| 20260508010008 | 72 | 319 | 1.0 | 4.0 | 0.00 | 0.00 | 0.00 | 25 | 1015.7 |
| 20260508005452 | 72 | 104 | 1.0 | 2.0 | 0.00 | 0.00 | 0.00 | 25 | 1015.7 |
| 20260508004952 | 72 | 119 | 2.0 | 5.0 | 0.00 | 0.00 | 0.00 | 24 | 1016.0 |
| 20260508004721 | 72 | 119 | 2.0 | 5.0 | 0.00 | 0.00 | 0.00 | 24 | 1016.0 |
| 20260508003949 | 73 | 102 | 1.0 | 5.0 | 0.00 | 0.00 | 0.00 | 24 | 1016.1 |
| 20260508003450 | 73 | 123 | 2.0 | 5.0 | 0.00 | 0.00 | 0.00 | 24 | 1016.3 |
| 20260508002951 | 73 | 82 | 1.0 | 4.0 | 0.00 | 0.00 | 0.00 | 24 | 1016.4 |
| 20260508001953 | 73 | 41 | 1.0 | 5.0 | 0.00 | 0.00 | 0.00 | 24 | 1016.6 |
| 20260508001437 | 73 | 41 | 3.0 | 8.0 | 0.00 | 0.00 | 0.00 | 24 | 1016.7 |
| 20260508000936 | 73 | 42 | 4.0 | 8.0 | 0.00 | 0.00 | 0.00 | 25 | 1016.6 |
| 20260508000702 | 73 | 5 | 3.0 | 7.0 | 0.00 | 0.00 | 0.00 | 24 | 1016.6 |
| 20260507235919 | 73 | 34 | 4.0 | 7.0 | 0.00 | 0.00 | 0.00 | 24 | 1016.8 |
| 20260507235408 | 74 | 334 | 4.0 | 8.0 | 0.00 | 0.00 | 0.00 | 24 | 1016.9 |
| 20260507234901 | 73 | 27 | 4.0 | 8.0 | 0.00 | 0.00 | 0.00 | 24 | 1016.8 |
| 20260507234353 | 73 | 33 | 4.0 | 8.0 | 0.00 | 0.00 | 0.00 | 24 | 1016.8 |
| 20260507234119 | 73 | 5 | 4.0 | 8.0 | 0.00 | 0.00 | 0.00 | 25 | 1016.9 |
| 20260507233338 | 73 | 33 | 5.0 | 10.0 | 0.00 | 0.00 | 0.00 | 24 | 1016.9 |
| 20260507232831 | 73 | 26 | 4.0 | 10.0 | 0.00 | 0.00 | 0.00 | 24 | 1017.0 |
| 20260507232554 | 73 | 282 | 3.0 | 6.0 | 0.00 | 0.00 | 0.00 | 24 | 1017.1 |
| 20260507231817 | 73 | 28 | 4.0 | 9.0 | 0.00 | 0.00 | 0.00 | 24 | 1017.1 |
| 20260507231305 | 73 | 286 | 4.0 | 11.0 | 0.00 | 0.00 | 0.00 | 23 | 1017.2 |
| 20260507230802 | 73 | 344 | 5.0 | 12.0 | 0.00 | 0.00 | 0.00 | 23 | 1017.2 |
| 20260507230252 | 74 | 310 | 4.0 | 12.0 | 0.00 | 0.00 | 0.00 | 23 | 1017.5 |
| 20260507225747 | 74 | 326 | 3.0 | 7.0 | 0.00 | 0.00 | 0.00 | 23 | 1017.6 |
| 20260507225234 | 74 | 69 | 3.0 | 9.0 | 0.00 | 0.00 | 0.00 | 23 | 1017.4 |
| 20260507224733 | 74 | 72 | 4.0 | 9.0 | 0.00 | 0.00 | 0.00 | 23 | 1017.5 |
| 20260507224226 | 74 | 203 | 4.0 | 8.0 | 0.00 | 0.00 | 0.00 | 23 | 1017.5 |
| 20260507223719 | 73 | 202 | 5.0 | 11.0 | 0.00 | 0.00 | 0.00 | 23 | 1017.2 |
| 20260507223207 | 73 | 94 | 6.0 | 12.0 | 0.00 | 0.00 | 0.00 | 24 | 1017.2 |
| 20260507222704 | 72 | 121 | 6.0 | 11.0 | 0.00 | 0.00 | 0.00 | 24 | 1017.4 |
| 20260507222156 | 72 | 155 | 6.0 | 11.0 | 0.00 | 0.00 | 0.00 | 24 | 1017.5 |
| 20260507221649 | 72 | 144 | 5.0 | 10.0 | 0.00 | 0.00 | 0.00 | 24 | 1017.6 |
| 20260507221134 | 72 | 105 | 4.0 | 9.0 | 0.00 | 0.00 | 0.00 | 24 | 1017.7 |
| 20260507220633 | 71 | 113 | 5.0 | 9.0 | 0.00 | 0.00 | 0.00 | 24 | 1017.7 |
| 20260507220130 | 71 | 90 | 6.0 | 9.0 | 0.00 | 0.00 | 0.00 | 24 | 1017.7 |
| 20260507215624 | 71 | 123 | 6.0 | 12.0 | 0.00 | 0.00 | 0.00 | 24 | 1017.8 |
| 20260507215117 | 71 | 108 | 6.0 | 12.0 | 0.00 | 0.00 | 0.00 | 24 | 1017.9 |
| 20260507214608 | 72 | 119 | 5.0 | 9.0 | 0.00 | 0.00 | 0.00 | 24 | 1018.3 |
| 20260507214106 | 73 | 112 | 4.0 | 8.0 | 0.00 | 0.00 | 0.00 | 23 | 1018.4 |
| 20260507213555 | 73 | 149 | 3.0 | 8.0 | 0.00 | 0.00 | 0.00 | 23 | 1018.6 |